Weather History for North Adams, MA

Change the Weather History Date:

Saturday, October 20, 2012

  Actual Average Record
Temperature  
Mean Temperature 60 °F -  
Max Temperature 71 °F 55 °F 71 °F (2012)
Min Temperature 50 °F 34 °F 21 °F (2008)
Degree Days  
Heating Degree Days 5    
Growing Degree Days 10 (Base 50)    
Moisture  
Dew Point 50 °F    
Average Humidity 79    
Maximum Humidity 100    
Minimum Humidity 32    
Precipitation  
Precipitation 0.00 in - - ()
Sea Level Pressure  
Sea Level Pressure 29.68 in    
Wind  
Wind Speed 4 mph (SW)    
Max Wind Speed 14 mph    
Max Gust Speed 23 mph    
Visibility 6 miles    
Events Fog    
Averages and records for this station are not official NWS values.
T = Trace of Precipitation, MM = Missing Value Source: NWS Daily Summary

Daily Weather History Graph

Daily Weather History Graph

Search for Another Location

Airport:

Trip Planner

Search our weather history database for the weather conditions in past years. The results will help you decide how hot, cold, wet, or windy it might be!

Date:

Astronomy

Oct. 20, 2012 Rise Set
Actual Time 7:12 AM EDT 6:01 PM EDT
Civil Twilight 6:43 AM EDT 6:30 PM EDT
Nautical Twilight 6:10 AM EDT 7:03 PM EDT
Astronomical Twilight 5:38 AM EDT 7:35 PM EDT
Moon 12:50 PM EDT (10/20) 10:40 PM EDT (10/20)
Length of Visible Light 11h 46m
Length of Day
10h 49m
Waxing Crescent, 34% of the Moon is Illuminated
Oct 20
Waxing Crescent
Oct 21
First Quarter
Oct 29
Full
Nov 6
Last Quarter
Nov 13
New

Hourly Weather History & Observations

Time (EDT) Temp. Dew Point Humidity Pressure Visibility Wind Dir Wind Speed Gust Speed Precip Events Conditions
12:52 AM 64.9 °F 59.0 °F 81% 29.68 in 10.0 mi East 8.1 mph 17.3 mph N/A   Scattered Clouds
1:52 AM 66.9 °F 57.0 °F 70% 29.66 in 10.0 mi South 8.1 mph 16.1 mph N/A   Partly Cloudy
2:52 AM 66.0 °F 55.0 °F 68% 29.65 in 10.0 mi South 10.4 mph 18.4 mph N/A   Clear
3:52 AM 62.1 °F 55.0 °F 78% 29.66 in 10.0 mi Variable 4.6 mph - N/A   Partly Cloudy
4:52 AM 57.9 °F 57.0 °F 97% 29.68 in 8.0 mi East 5.8 mph - N/A   Clear
5:52 AM 57.0 °F 55.9 °F 96% 29.68 in 6.0 mi East 4.6 mph - N/A   Partly Cloudy
6:52 AM 53.1 °F 51.1 °F 93% 29.68 in 4.0 mi Calm Calm - N/A   Clear
7:11 AM 51.8 °F 50.0 °F 94% 29.67 in 4.0 mi Calm Calm - N/A   Partly Cloudy
7:21 AM 51.8 °F 50.0 °F 94% 29.68 in 1.5 mi Calm Calm - N/A   Partly Cloudy
7:23 AM 50.0 °F 48.2 °F 94% 29.68 in 1.0 mi Calm Calm - N/A   Mist
7:28 AM 50.0 °F 48.2 °F 94% 29.68 in 0.8 mi Calm Calm - N/A   Mist
7:38 AM 51.8 °F 50.0 °F 94% 29.67 in 0.2 mi Calm Calm - N/A Fog Fog
7:52 AM 50.0 °F 48.9 °F 96% 29.68 in 0.2 mi Calm Calm - N/A Fog Fog
8:31 AM 53.6 °F 53.6 °F 100% 29.68 in 0.5 mi Calm Calm - N/A Fog Fog
8:42 AM 53.6 °F 53.6 °F 100% 29.68 in 0.2 mi Calm Calm - N/A Fog Fog
8:52 AM 55.0 °F 54.0 °F 96% 29.68 in 0.2 mi Calm Calm - N/A Fog Fog
9:02 AM 55.4 °F 55.4 °F 100% 29.68 in 1.2 mi Calm Calm - N/A   Mostly Cloudy
9:04 AM 55.4 °F 55.4 °F 100% 29.68 in 2.5 mi Calm Calm - N/A   Mostly Cloudy
9:11 AM 55.4 °F 55.4 °F 100% 29.69 in 4.0 mi Calm Calm - N/A   Scattered Clouds
9:52 AM 60.1 °F 57.0 °F 90% 29.67 in 10.0 mi ESE 3.5 mph - N/A   Clear
10:52 AM 64.9 °F 52.0 °F 63% 29.68 in 10.0 mi SW 4.6 mph - N/A   Clear
11:52 AM 68.0 °F 48.0 °F 49% 29.66 in 10.0 mi Variable 3.5 mph - N/A   Clear
12:52 PM 70.0 °F 45.0 °F 41% 29.62 in 10.0 mi West 6.9 mph - N/A   Clear
2:52 PM 69.1 °F 41.0 °F 36% 29.60 in 10.0 mi Variable 5.8 mph - N/A   Mostly Cloudy
3:52 PM 70.0 °F 39.0 °F 32% 29.61 in 10.0 mi West 13.8 mph 23.0 mph N/A   Scattered Clouds
6:39 PM 55.4 °F 44.6 °F 67% 29.71 in 10.0 mi Variable 3.5 mph - N/A   Mostly Cloudy
6:52 PM 55.9 °F 44.1 °F 64% 29.71 in 10.0 mi WNW 3.5 mph - N/A   Overcast
7:52 PM 54.0 °F 43.0 °F 66% 29.73 in 10.0 mi West 3.5 mph - N/A   Overcast
9:52 PM 52.0 °F 37.0 °F 57% 29.75 in 10.0 mi West 8.1 mph - N/A   Mostly Cloudy
10:52 PM 51.1 °F 36.0 °F 56% 29.76 in 10.0 mi WNW 4.6 mph - N/A   Clear